sat.trackr.live / text

‹ back to catalog

ONEWEB-0147

NORAD 47293 · 2020-100AM

PAYLOAD ACTIVE UNKNOWN

§ Identity

Operator
Country
UK
Launch date
2020-12-18
Launch site
VOSTO
Launch vehicle
Mass (kg)
RCS (m²)

Purposes: comms

External: N2YO · Heavens-Above · Gunter

§ Orbital elements

Epoch: 2026-09-14T11:56:23.157600Z

Period
109.72 min
Inclination
87.8994°
Eccentricity
0.0001900
Mean motion
13.12443844 rev/d
Perigee alt
1,212.3 km
Apogee alt
1,215.2 km
Semi-major
7,591.9 km
B*
8.8574e-4
RAAN
332.9168°
Arg perigee
94.5316°
Mean anomaly
265.6029°
Rev number
27,628

§ Raw data

ONEWEB-01471 47293U 20100AM  26257.49749025  .00000331  00000+0  88574-3 0  99912 47293  87.8994 332.9168 0001900  94.5316 265.6029 13.12443844276281

JSON: /api/v1/satellites/47293 · /tle

For live sub-satellite position, see the globe view (requires WebGL).

§ Visibility from observer

Set your observer location to see the next 7 days of passes ≥ 10°. The values pass through the URL so the page stays shareable.

No JS? Fill the form by hand. The geolocation button needs JavaScript.